Regional Weather Roundup
Issued by NWS

Home | Current Version | Previous Version | Graphics & Text | Print | Product List | Glossary On
Versions: 1 2 3 4 5 6 7 8 9 10 11 12 13 14 15 16 17 18 19 20 21 22 23 24 25 26 27 28 29 30 31 32 33 34 35 36 37 38 39 40 41 42 43 44 45 46 47 48 49 50
000
ASUS43 KDMX 221401
RWRIA

WEATHER ROUNDUP FOR IOWA
NATIONAL WEATHER SERVICE DES MOINES IA
900 AM CDT FRI SEP 22 2017

NOTE: "FAIR" INDICATES FEW OR NO CLOUDS BELOW 12,000 FEET WITH NO
SIGNIFICANT WEATHER AND/OR OBSTRUCTIONS TO VISIBILITY.

* - THESE STATIONS ARE NOT NWS STATIONS...THUS NOT UNDER NWS
QUALITY CONTROL.  THEY ALSO DO NOT REPORT WEATHER SUCH
AS PRECIPITATION OR FOG.

IAZ001>003-012>014-020>022-031>034-043>046-221500-
   NORTHWEST IOWA

CITY           SKY/WX    TMP DP  RH WIND       PRES   REMARKS
CARROLL *      SUNNY     79  72  78 S16       29.87S HX  82
CHEROKEE *     SUNNY     77  72  83 S15G22    29.82S
DENISON *      SUNNY     77  70  78 S16G24    29.86S
LE MARS *      SUNNY     77  70  78 S20G26    29.77S
ORANGE CITY *  SUNNY     79  73  83 S18G25    29.79S HX  82
SHELDON *      SUNNY     77  70  78 S14       29.78S
SIOUX CITY     SUNNY     76  71  85 S10       29.78S
SPENCER        SUNNY     78  70  76 S13G24    29.82S HX  80
STORM LAKE *   SUNNY     79  70  73 S20G30    29.84R HX  81
$$

IAZ055>058-069>071-079>083-090>094-221500-
   SOUTHWEST IOWA

CITY           SKY/WX    TMP DP  RH WIND       PRES   REMARKS
ATLANTIC *     SUNNY     77  70  78 S12G21    29.89S
AUDUBON *      SUNNY     75  72  88 S14G21    29.90S
CLARINDA *     SUNNY     77  72  83 S10       29.93R
COUNCIL BLFS * SUNNY     79  73  83 S15       29.86R HX  82
CRESTON *      SUNNY     75  70  83 S15G21    29.95R
HARLAN  *      MOSUNNY   77  72  83 S15G25    29.90S
LAMONI         SUNNY     74  69  85 S13G22    29.96S
RED OAK *      MOSUNNY   79  72  78 S14G21    29.89S HX  82
SHENANDOAH *   SUNNY     79  70  73 S10G17    29.89S HX  81
$$

IAZ047>049-059>061-072>074-084-221500-
   CENTRAL IOWA

CITY           SKY/WX    TMP DP  RH WIND       PRES   REMARKS
AMES           SUNNY     76  72  87 S10       29.92S
ANKENY *       SUNNY     75  70  83 S10G16    29.94R
BOONE *        SUNNY     77  70  78 S13       29.91S
CHARITON *     SUNNY     75  70  83 S15       29.97R
DES MOINES     MOSUNNY   77  70  79 S10       29.93R
GRINNELL*      SUNNY     76  68  77 S10G16    29.98S
KNOXVILLE *    SUNNY     77  68  73 S10G20    29.95S
MARSHALLTOWN   SUNNY     77  70  79 S15       29.95R
NEWTON *       SUNNY     75  70  83 S13G20    29.97R
PELLA *        SUNNY     77  67  72 S8        29.98R
PERRY *          N/A     79  72  79 S12G17    29.91R HX  82
$$

IAZ004>006-015-016-023>025-035-036-221500-
   NORTH CENTRAL IOWA

CITY           SKY/WX    TMP DP  RH WIND       PRES   REMARKS
ALGONA *       MOSUNNY   75  73  94 S13G26    29.87R
CLARION *      SUNNY     77  72  83 S18G24    29.90R
ESTHERVILLE    SUNNY     74  72  93 S14       29.83R
FORT DODGE *   SUNNY     79  70  74 S15G21    29.89R HX  82
MASON CITY     SUNNY     73  69  87 S13       29.92S
FOREST CITY *    N/A     77  70  78 S15       29.89S
WEBSTER CITY * SUNNY     75  70  83 SE12G18   29.88S
IOWA FALLS *     N/A     76  69  81 S15       29.94R
$$

IAZ007>011-017>019-026>030-037>042-050>054-066-221500-
   NORTHEAST IOWA

CITY           SKY/WX    TMP DP  RH WIND       PRES   REMARKS
CEDAR RAPIDS   SUNNY     77  69  76 S9        29.99R
CHARLES CITY * SUNNY     77  72  83 S12G17    29.95R
CLINTON *      SUNNY    N/A N/A N/A S10       30.04R
DECORAH *      SUNNY     77  70  78 S8G14     29.96R
DUBUQUE        SUNNY     74  68  81 S13       30.02S
MONTICELLO *   SUNNY     77  70  78 S8        30.01R
OELWEIN *      SUNNY     77  70  78 S15G22    29.98S
WATERLOO       SUNNY     77  68  73 S14       29.94S
$$

IAZ064-065-067-068-078-221500-
   EAST CENTRAL IOWA

CITY           SKY/WX    TMP DP  RH WIND       PRES   REMARKS
DAVENPORT      SUNNY     77  69  76 S8        30.05R
IOWA CITY      SUNNY     78  70  76 S8        30.01R HX  80
MUSCATINE *    SUNNY     75  70  83 S9        30.02S
QUAD CITIES    SUNNY     78  68  71 S7        30.02S HX  80
$$

IAZ062-063-075>077-085>089-095>099-221500-
   SOUTHEAST IOWA

CITY           SKY/WX    TMP DP  RH WIND       PRES   REMARKS
BURLINGTON     SUNNY     77  70  79 S10       30.03R
FAIRFIELD *    SUNNY     77  68  73 S12       30.00R
FORT MADISON * SUNNY     75  70  83 S7        30.03S
KEOKUK *       SUNNY     79  70  73 S8        30.02R HX  81
OSKALOOSA *      N/A     77  69  75 S9        29.99R
OTTUMWA        SUNNY     78  69  73 S13       29.99R HX  80
WASHINGTON *   SUNNY     77  70  78 S9        30.02R
$$

ABBREVIATIONS USED IN REMARKS
   TC - TEMPERATURES IN CELSIUS
  WCI - WIND CHILL INDEX
   HX - HEAT INDEX
  VSB - VISIBILITY
$$





USA.gov is the U.S. government's official web portal to all federal, state and local government web resources and services.